EDT,Max TemperatureF,Mean TemperatureF,Min TemperatureF,Max Dew PointF,MeanDew PointF,Min DewpointF,Max Humidity, Mean Humidity, Min Humidity, Max Sea Level PressureIn, Mean Sea Level PressureIn, Min Sea Level PressureIn, Max VisibilityMiles, Mean VisibilityMiles, Min VisibilityMiles, Max Wind SpeedMPH, Mean Wind SpeedMPH, Max Gust SpeedMPH,PrecipitationIn, CloudCover, Events, WindDirDegrees
2013-3-1,71,67,63,63,58,48,90,75,47,30.01,29.96,29.92,10,9,2,18,7,22,0.08,8,Rain,20
2013-3-2,69,64,57,54,50,39,70,61,40,30.07,30.02,29.98,10,10,10,24,14,31,0.00,7,Rain,346
2013-3-3,66,62,57,55,51,44,94,72,52,30.17,30.05,29.97,10,10,7,20,9,26,0.11,6,Rain,340
2013-3-4,64,60,55,50,47,38,77,61,44,30.23,30.18,30.14,10,10,10,13,9,,0.00,3,,20
2013-3-5,75,66,57,57,52,50,81,61,41,30.17,30.14,30.10,10,10,10,13,6,,0.00,1,,82
2013-3-6,78,70,62,64,57,49,86,65,50,30.14,30.11,30.07,10,10,10,18,11,26,0.00,1,,304
2013-3-7,64,62,60,52,47,44,72,60,48,30.22,30.17,30.10,10,10,10,18,13,25,0.00,2,,359
2013-3-8,72,66,60,58,52,46,82,62,44,30.20,30.16,30.13,10,10,10,14,8,,0.00,0,,16
2013-3-9,75,69,63,60,56,46,81,64,42,30.17,30.14,30.09,10,10,10,15,9,21,0.00,1,,49
2013-3-10,77,70,64,61,57,53,88,62,48,30.13,30.08,30.03,10,10,9,20,12,25,0.00,2,,89
2013-3-11,80,76,71,65,60,55,76,62,54,30.06,30.00,29.96,10,10,9,17,14,20,0.00,3,,122
2013-3-12,80,74,69,68,66,59,93,76,61,30.04,29.97,29.91,10,10,10,15,12,21,0.00,5,,182
2013-3-13,73,68,64,64,56,49,84,65,44,30.15,30.08,30.01,10,10,9,22,15,28,0.00,6,,354
2013-3-14,70,66,63,55,48,43,70,52,40,30.22,30.17,30.12,10,10,10,23,17,31,0.00,3,,5
2013-3-15,72,66,60,55,47,42,70,53,38,30.26,30.19,30.16,10,10,10,18,9,25,0.00,2,,32
2013-3-16,75,70,64,58,55,51,78,62,45,30.19,30.14,30.09,10,10,4,13,9,,0.00,2,,70
2013-3-17,81,74,69,65,62,57,81,68,54,30.12,30.07,30.00,10,10,10,14,10,,0.00,4,,118
2013-3-18,81,76,70,70,68,66,90,81,67,30.05,30.00,29.96,10,10,8,16,9,23,0.01,4,Rain,126
2013-3-19,75,72,68,72,67,64,94,85,73,30.04,29.98,29.94,10,8,1,21,9,29,1.91,6,Rain-Thunderstorm,277
2013-3-20,79,72,66,67,65,62,93,80,62,30.00,29.94,29.86,10,10,10,21,6,33,0.01,1,,337
2013-3-21,75,72,68,65,61,57,87,72,61,29.96,29.91,29.86,10,10,10,12,7,18,0.00,3,,349
2013-3-22,82,74,68,72,68,60,90,80,69,29.99,29.94,29.89,10,10,10,13,6,,0.00,3,,125
2013-3-23,82,78,73,73,72,69,94,83,65,29.98,29.91,29.83,10,10,10,15,8,,0.00,1,,152
2013-3-24,86,80,75,74,73,71,94,83,65,29.88,29.80,29.74,10,10,2,17,10,24,0.00,2,,194
2013-3-25,77,72,66,74,67,53,94,81,57,30.04,29.86,29.77,10,9,2,25,9,31,0.43,7,Rain-Thunderstorm,322
2013-3-26,68,64,59,52,48,45,62,55,49,30.24,30.12,30.02,10,10,5,24,19,33,0.00,6,,353
2013-3-27,64,60,55,48,42,37,67,53,37,30.30,30.23,30.18,10,10,9,18,15,25,0.00,1,,358
2013-3-28,71,66,60,56,48,43,73,54,41,30.26,30.21,30.17,10,10,7,16,11,24,0.00,1,,25
2013-3-29,75,68,62,57,53,51,78,59,43,30.28,30.23,30.20,10,10,6,16,10,22,0.00,1,,62
2013-3-30,79,72,66,59,57,54,78,63,46,30.25,30.19,30.14,10,10,9,17,9,23,0.00,2,,78
2013-3-31,81,74,68,69,63,57,87,69,52,30.16,30.10,30.04,10,10,10,16,11,,0.00,1,,118